When you browse on this site, cookies collect data to enhance your experience and personalize the content and advertising you see.
Visit our Privacy Policy to learn more. By continuing to use the site, you agree to this use of cookies and data.
  • In Romania
  • List of Countries
  • For 7 days
  • Water Temperature
  • Satellite Maps
  • Weather Map
  • Weather Widgets
  • user-avatar
    Login

    Hourly Weather Las Vegas

    Today, 21 April, Sunday

    Time Temperature Precipitation Wind Pressure Humidity
    00:00 +21°C° 0 mm 4 mps 703 mmHg 40%
    01:00 +21°C° 0 mm 4 mps 703 mmHg 42%
    02:00 +20°C° 0 mm 3 mps 703 mmHg 44%
    03:00 +20°C° 0 mm 3 mps 704 mmHg 46%
    04:00 +19°C° 0 mm 3 mps 704 mmHg 49%
    05:00 +20°C° 0 mm 2 mps 704 mmHg 47%
    06:00 +20°C° 0 mm 2 mps 705 mmHg 46%
    07:00 +21°C° 0 mm 2 mps 706 mmHg 44%
    08:00 +23°C° 0 mm 2 mps 706 mmHg 39%
    09:00 +24°C° 0 mm 2 mps 706 mmHg 34%
    10:00 +25°C° 0 mm 2 mps 706 mmHg 29%
    11:00 +26°C° 0 mm 2 mps 706 mmHg 25%
    12:00 +27°C° 0 mm 3 mps 706 mmHg 21%
    13:00 +28°C° 0 mm 3 mps 706 mmHg 16%
    14:00 +28°C° 0 mm 4 mps 705 mmHg 16%
    15:00 +28°C° 0 mm 5 mps 705 mmHg 16%
    16:00 +28°C° 0 mm 6 mps 705 mmHg 16%
    17:00 +27°C° 0 mm 7 mps 705 mmHg 16%
    18:00 +26°C° 0 mm 7 mps 705 mmHg 17%
    19:00 +24°C° 0 mm 8 mps 705 mmHg 17%
    20:00 +23°C° 0 mm 7 mps 706 mmHg 20%
    21:00 +23°C° 0 mm 6 mps 706 mmHg 22%
    22:00 +22°C° 0 mm 5 mps 706 mmHg 25%
    23:00 +21°C° 0 mm 5 mps 706 mmHg 27%

    Tomorrow, 22 April, Monday

    Time Temperature Precipitation Wind Pressure Humidity
    00:00 +20°C° 0 mm 6 mps 706 mmHg 30%
    01:00 +20°C° 0 mm 6 mps 706 mmHg 33%
    02:00 +19°C° 0 mm 5 mps 707 mmHg 33%
    03:00 +19°C° 0 mm 5 mps 707 mmHg 34%
    04:00 +17°C° 0 mm 5 mps 707 mmHg 34%
    05:00 +19°C° 0 mm 5 mps 707 mmHg 33%
    06:00 +19°C° 0 mm 5 mps 708 mmHg 32%
    07:00 +20°C° 0 mm 5 mps 708 mmHg 31%
    08:00 +21°C° 0 mm 5 mps 708 mmHg 29%
    09:00 +22°C° 0 mm 5 mps 709 mmHg 28%
    10:00 +23°C° 0 mm 5 mps 709 mmHg 27%
    11:00 +25°C° 0 mm 5 mps 709 mmHg 25%
    12:00 +26°C° 0 mm 5 mps 708 mmHg 23%
    13:00 +27°C° 0 mm 5 mps 708 mmHg 21%
    14:00 +27°C° 0 mm 6 mps 708 mmHg 21%
    15:00 +27°C° 0 mm 6 mps 707 mmHg 20%
    16:00 +27°C° 0 mm 6 mps 707 mmHg 20%
    17:00 +27°C° 0.1 mm 6 mps 707 mmHg 23%
    18:00 +26°C° 0.1 mm 6 mps 707 mmHg 26%
    19:00 +25°C° 0.1 mm 5 mps 707 mmHg 29%
    20:00 +23°C° 0.1 mm 5 mps 708 mmHg 31%
    21:00 +22°C° 0.1 mm 5 mps 708 mmHg 33%
    22:00 +22°C° 0.1 mm 5 mps 709 mmHg 35%
    23:00 +21°C° 0 mm 5 mps 708 mmHg 36%

    Day after tomorrow, 23 April, Tuesday

    Time Temperature Precipitation Wind Pressure Humidity
    00:00 +21°C° 0 mm 5 mps 708 mmHg 37%
    01:00 +20°C° 0 mm 5 mps 708 mmHg 38%
    02:00 +20°C° 0 mm 5 mps 708 mmHg 39%
    03:00 +19°C° 0 mm 5 mps 708 mmHg 40%
    04:00 +19°C° 0 mm 5 mps 709 mmHg 41%
    05:00 +19°C° 0 mm 5 mps 709 mmHg 40%
    06:00 +20°C° 0 mm 6 mps 709 mmHg 39%
    07:00 +21°C° 0 mm 6 mps 710 mmHg 37%
    08:00 +22°C° 0 mm 6 mps 710 mmHg 34%
    09:00 +23°C° 0 mm 6 mps 710 mmHg 30%
    10:00 +26°C° 0 mm 6 mps 710 mmHg 27%
    11:00 +27°C° 0 mm 5 mps 710 mmHg 24%
    12:00 +28°C° 0 mm 5 mps 709 mmHg 22%
    13:00 +29°C° 0 mm 5 mps 709 mmHg 20%
    14:00 +29°C° 0 mm 5 mps 708 mmHg 19%
    15:00 +30°C° 0 mm 4 mps 708 mmHg 18%
    16:00 +30°C° 0 mm 4 mps 708 mmHg 17%
    17:00 +29°C° 0 mm 4 mps 708 mmHg 19%
    18:00 +28°C° 0 mm 3 mps 708 mmHg 20%
    19:00 +28°C° 0 mm 3 mps 708 mmHg 21%
    20:00 +27°C° 0 mm 3 mps 708 mmHg 22%
    21:00 +26°C° 0 mm 3 mps 709 mmHg 23%
    22:00 +26°C° 0 mm 3 mps 709 mmHg 24%
    23:00 +25°C° 0 mm 3 mps 709 mmHg 25%

    24 April, Wednesday

    Time Temperature Precipitation Wind Pressure Humidity
    00:00 +24°C° 0 mm 2 mps 709 mmHg 27%
    01:00 +24°C° 0 mm 2 mps 709 mmHg 28%
    02:00 +23°C° 0 mm 2 mps 709 mmHg 29%
    03:00 +23°C° 0 mm 2 mps 709 mmHg 30%
    04:00 +21°C° 0 mm 2 mps 709 mmHg 31%
    05:00 +23°C° 0 mm 2 mps 709 mmHg 29%
    06:00 +24°C° 0 mm 1 mps 710 mmHg 27%
    07:00 +26°C° 0 mm 1 mps 710 mmHg 25%
    08:00 +27°C° 0 mm 1 mps 710 mmHg 23%
    09:00 +28°C° 0 mm 1 mps 710 mmHg 21%
    10:00 +29°C° 0 mm 1 mps 711 mmHg 19%
    11:00 +30°C° 0 mm 1 mps 710 mmHg 18%
    12:00 +30°C° 0 mm 1 mps 710 mmHg 17%
    13:00 +31°C° 0 mm 1 mps 709 mmHg 16%
    14:00 +32°C° 0 mm 1 mps 709 mmHg 16%
    15:00 +32°C° 0 mm 1 mps 708 mmHg 15%
    16:00 +32°C° 0 mm 1 mps 708 mmHg 15%
    17:00 +32°C° 0 mm 1 mps 708 mmHg 16%
    18:00 +31°C° 0 mm 1 mps 708 mmHg 17%
    19:00 +30°C° 0 mm 1 mps 708 mmHg 18%
    20:00 +30°C° 0 mm 1 mps 708 mmHg 19%
    21:00 +29°C° 0 mm 2 mps 708 mmHg 19%
    22:00 +28°C° 0 mm 2 mps 709 mmHg 20%
    23:00 +28°C° 0 mm 2 mps 708 mmHg 20%

    25 April, Thursday

    Time Temperature Precipitation Wind Pressure Humidity
    00:00 +27°C° 0 mm 2 mps 708 mmHg 21%
    01:00 +26°C° 0 mm 1 mps 708 mmHg 21%
    02:00 +26°C° 0 mm 1 mps 708 mmHg 23%
    03:00 +25°C° 0 mm 1 mps 708 mmHg 24%
    04:00 +22°C° 0 mm 0 mps 708 mmHg 25%
    05:00 +25°C° 0 mm 1 mps 709 mmHg 23%
    06:00 +27°C° 0 mm 1 mps 709 mmHg 21%
    07:00 +28°C° 0 mm 1 mps 710 mmHg 19%
    08:00 +29°C° 0 mm 1 mps 710 mmHg 18%
    09:00 +30°C° 0 mm 1 mps 710 mmHg 16%
    10:00 +31°C° 0 mm 1 mps 710 mmHg 15%
    11:00 +32°C° 0 mm 2 mps 710 mmHg 15%
    12:00 +34°C° 0 mm 2 mps 709 mmHg 14%
    13:00 +34°C° 0 mm 2 mps 709 mmHg 13%
    14:00 +35°C° 0 mm 2 mps 708 mmHg 13%
    15:00 +35°C° 0 mm 2 mps 708 mmHg 12%
    16:00 +35°C° 0 mm 2 mps 707 mmHg 12%
    17:00 +35°C° 0 mm 2 mps 707 mmHg 13%
    18:00 +34°C° 0 mm 2 mps 707 mmHg 14%
    19:00 +32°C° 0 mm 2 mps 708 mmHg 15%
    20:00 +31°C° 0 mm 2 mps 708 mmHg 15%
    21:00 +30°C° 0 mm 2 mps 708 mmHg 16%
    22:00 +29°C° 0 mm 2 mps 708 mmHg 17%
    23:00 +28°C° 0 mm 2 mps 708 mmHg 18%

    26 April, Friday

    Time Temperature Precipitation Wind Pressure Humidity
    00:00 +28°C° 0 mm 2 mps 707 mmHg 18%
    01:00 +27°C° 0 mm 2 mps 707 mmHg 19%
    02:00 +26°C° 0 mm 2 mps 707 mmHg 20%
    03:00 +25°C° 0 mm 2 mps 707 mmHg 22%
    04:00 +25°C° 0 mm 1 mps 707 mmHg 23%
    05:00 +26°C° 0 mm 2 mps 707 mmHg 23%
    06:00 +26°C° 0 mm 2 mps 708 mmHg 22%
    07:00 +27°C° 0 mm 2 mps 708 mmHg 21%
    08:00 +29°C° 0 mm 3 mps 708 mmHg 19%
    09:00 +30°C° 0 mm 3 mps 708 mmHg 17%
    10:00 +32°C° 0 mm 4 mps 708 mmHg 16%
    11:00 +33°C° 0 mm 5 mps 708 mmHg 14%
    12:00 +34°C° 0 mm 6 mps 707 mmHg 13%
    13:00 +35°C° 0 mm 7 mps 706 mmHg 11%
    14:00 +35°C° 0 mm 7 mps 706 mmHg 11%
    15:00 +35°C° 0 mm 8 mps 705 mmHg 10%
    16:00 +35°C° 0 mm 8 mps 705 mmHg 10%
    17:00 +34°C° 0 mm 8 mps 705 mmHg 12%
    18:00 +33°C° 0 mm 7 mps 705 mmHg 13%
    19:00 +32°C° 0 mm 6 mps 705 mmHg 15%
    20:00 +30°C° 0 mm 6 mps 705 mmHg 18%
    21:00 +29°C° 0 mm 5 mps 705 mmHg 21%
    22:00 +28°C° 0 mm 5 mps 705 mmHg 24%
    23:00 +27°C° 0 mm 4 mps 705 mmHg 26%
    Show more